Weather in Zun-Murino

Russia / Republic of Buryatia     51°44′24″N   102°52′17″E
temp.,
°C
wind,
m/s
gust,
m/s
humid.,
%
clouds,
%
prec.,
mm/h
press.,
hPa
HPBL,
m
26 february, fri
fri2623:00−8s0180100 0.0 101021
02:00−9ene4890100 0.0 1014336
05:00−13e2491100 0.0 101682
08:00−14e1292100 0.0 101826
11:00−11ne2390100 1.7 1017401
14:00−11ene3580100 1.9 1015828
17:00−12ene4579100 0.1 1016941
20:00−17e2592100 0.3 1022202
27 february, sat
sat2723:00−20ne1293100 0.1 102821
02:00−23s019178 0.1 103120
05:00−23wsw1193100 0.0 103420
08:00−25se119193 0.0 103720
11:00−19ne118477 0.0 1037366
14:00−15nne026654 0.0 1034601
17:00−15e11630 0.0 1033484
20:00−22e129012 0.0 103721
28 february, sun
sun2823:00−25sse01906 0.0 103920
02:00−26ssw11857 0.0 103919
05:00−27wsw118028 0.0 104019
08:00−27wsw117626 0.0 104119
11:00−19wnw127174 0.0 1039207
14:00−14w126244 0.0 1036335
17:00−13s11670 0.0 1035348
20:00−20ese128412 0.0 103820
1 march, mon
mon123:00−23ssw11850 0.0 103920
02:00−24sw11793 0.0 103720
05:00−25wsw117710 0.0 103720
08:00−25w117810 0.0 103620
11:00−18wnw127211 0.0 1032209
14:00−12wnw136825 0.0 1027291
17:00−10nw01730 0.0 1024216
20:00−17wsw11820 0.0 102420
2 march, tue
tue223:00−17sw118070 0.0 102221
02:00−16w118183 0.0 101921
05:00−15w118199 0.0 101820
08:00−15w1182100 0.0 101820
11:00−9nw117591 0.0 1015188
14:00−4wnw127459 0.0 1012257
17:00−3ene118136 0.0 1010139
20:00−9sw018768 0.0 101221